When you browse on this site, cookies collect data to enhance your experience and personalize the content and advertising you see.
Visit our Privacy Policy to learn more. By continuing to use the site, you agree to this use of cookies and data.

Stündliche Wetter Bolshie Konyushany

Heute, 27 September, Sonntag

Zeit Temperatur Niederschläge Wind Luftdruck Luftfeuchtigkeit
00:00 +19°C° 0 mm 6 m/S 740 mmHg 57%
01:00 +19°C° 0 mm 6 m/S 740 mmHg 59%
02:00 +19°C° 0 mm 6 m/S 740 mmHg 60%
03:00 +17°C° 0 mm 7 m/S 740 mmHg 58%
04:00 +17°C° 0 mm 7 m/S 740 mmHg 57%
05:00 +17°C° 0 mm 7 m/S 740 mmHg 56%
06:00 +16°C° 0 mm 7 m/S 740 mmHg 55%
07:00 +16°C° 0 mm 7 m/S 740 mmHg 53%
08:00 +16°C° 0 mm 8 m/S 740 mmHg 52%
09:00 +17°C° 0 mm 8 m/S 740 mmHg 52%
10:00 +17°C° 0 mm 8 m/S 740 mmHg 52%
11:00 +18°C° 0 mm 8 m/S 740 mmHg 52%
12:00 +18°C° 0 mm 8 m/S 740 mmHg 55%
13:00 +20°C° 0 mm 7 m/S 740 mmHg 57%
14:00 +20°C° 0 mm 7 m/S 740 mmHg 59%
15:00 +18°C° 0.2 mm 7 m/S 740 mmHg 67%
16:00 +17°C° 0.2 mm 7 m/S 741 mmHg 75%
17:00 +16°C° 0.2 mm 7 m/S 741 mmHg 83%
18:00 +15°C° 1 mm 6 m/S 741 mmHg 85%
19:00 +14°C° 1 mm 5 m/S 742 mmHg 86%
20:00 +13°C° 1 mm 5 m/S 743 mmHg 88%
21:00 +12°C° 0 mm 4 m/S 743 mmHg 87%
22:00 +11°C° 0 mm 4 m/S 744 mmHg 87%
23:00 +10°C° 0 mm 4 m/S 745 mmHg 86%

Morgen, 28 September, Montag

Zeit Temperatur Niederschläge Wind Luftdruck Luftfeuchtigkeit
00:00 +10°C° 0 mm 4 m/S 746 mmHg 86%
01:00 +10°C° 0 mm 4 m/S 746 mmHg 86%
02:00 +11°C° 0 mm 4 m/S 746 mmHg 86%
03:00 +10°C° 0 mm 4 m/S 747 mmHg 87%
04:00 +10°C° 0 mm 4 m/S 747 mmHg 88%
05:00 +8°C° 0 mm 4 m/S 748 mmHg 90%
06:00 +8°C° 0 mm 4 m/S 748 mmHg 88%
07:00 +10°C° 0 mm 4 m/S 748 mmHg 87%
08:00 +10°C° 0 mm 3 m/S 749 mmHg 86%
09:00 +12°C° 0 mm 4 m/S 749 mmHg 78%
10:00 +13°C° 0 mm 4 m/S 749 mmHg 70%
11:00 +15°C° 0 mm 4 m/S 750 mmHg 63%
12:00 +15°C° 0 mm 4 m/S 750 mmHg 60%
13:00 +17°C° 0 mm 4 m/S 750 mmHg 57%
14:00 +18°C° 0 mm 4 m/S 749 mmHg 53%
15:00 +17°C° 0 mm 4 m/S 749 mmHg 57%
16:00 +17°C° 0 mm 3 m/S 749 mmHg 60%
17:00 +16°C° 0 mm 2 m/S 749 mmHg 64%
18:00 +14°C° 0 mm 3 m/S 749 mmHg 66%
19:00 +13°C° 0 mm 3 m/S 750 mmHg 68%
20:00 +12°C° 0 mm 3 m/S 750 mmHg 69%
21:00 +12°C° 0 mm 3 m/S 750 mmHg 73%
22:00 +12°C° 0 mm 3 m/S 750 mmHg 76%
23:00 +11°C° 0 mm 3 m/S 750 mmHg 79%

übermorgen, 29 September, Dienstag

Zeit Temperatur Niederschläge Wind Luftdruck Luftfeuchtigkeit
00:00 +11°C° 0 mm 3 m/S 749 mmHg 81%
01:00 +11°C° 0 mm 3 m/S 749 mmHg 82%
02:00 +11°C° 0 mm 3 m/S 749 mmHg 83%
03:00 +11°C° 0 mm 3 m/S 749 mmHg 80%
04:00 +12°C° 0 mm 3 m/S 749 mmHg 78%
05:00 +12°C° 0 mm 3 m/S 749 mmHg 75%
06:00 +12°C° 0 mm 3 m/S 749 mmHg 75%
07:00 +12°C° 0 mm 3 m/S 748 mmHg 74%
08:00 +13°C° 0 mm 3 m/S 748 mmHg 74%
09:00 +14°C° 0 mm 4 m/S 748 mmHg 71%
10:00 +14°C° 0 mm 4 m/S 748 mmHg 68%
11:00 +15°C° 0 mm 4 m/S 749 mmHg 66%
12:00 +18°C° 0 mm 4 m/S 748 mmHg 62%
13:00 +19°C° 0 mm 4 m/S 748 mmHg 59%
14:00 +20°C° 0 mm 4 m/S 748 mmHg 56%
15:00 +19°C° 0 mm 3 m/S 748 mmHg 60%
16:00 +19°C° 0 mm 3 m/S 748 mmHg 64%
17:00 +18°C° 0 mm 2 m/S 748 mmHg 67%
18:00 +17°C° 0 mm 2 m/S 748 mmHg 70%
19:00 +16°C° 0 mm 2 m/S 748 mmHg 72%
20:00 +14°C° 0 mm 3 m/S 748 mmHg 75%
21:00 +13°C° 0 mm 3 m/S 748 mmHg 80%
22:00 +12°C° 0 mm 3 m/S 748 mmHg 86%
23:00 +12°C° 0 mm 3 m/S 748 mmHg 92%

30 September, Mittwoch

Zeit Temperatur Niederschläge Wind Luftdruck Luftfeuchtigkeit
00:00 +12°C° 0 mm 3 m/S 747 mmHg 93%
01:00 +11°C° 0 mm 3 m/S 747 mmHg 94%
02:00 +11°C° 0 mm 3 m/S 747 mmHg 95%
03:00 +11°C° 0 mm 3 m/S 747 mmHg 95%
04:00 +11°C° 0 mm 3 m/S 747 mmHg 94%
05:00 +11°C° 0 mm 3 m/S 747 mmHg 94%
06:00 +11°C° 0 mm 4 m/S 746 mmHg 90%
07:00 +12°C° 0 mm 4 m/S 746 mmHg 87%
08:00 +12°C° 0 mm 5 m/S 746 mmHg 84%
09:00 +14°C° 0 mm 5 m/S 746 mmHg 77%
10:00 +15°C° 0 mm 5 m/S 746 mmHg 71%
11:00 +16°C° 0 mm 5 m/S 746 mmHg 64%
12:00 +17°C° 0 mm 5 m/S 745 mmHg 62%
13:00 +17°C° 0 mm 5 m/S 745 mmHg 60%
14:00 +19°C° 0 mm 6 m/S 745 mmHg 58%
15:00 +17°C° 0 mm 5 m/S 745 mmHg 60%
16:00 +16°C° 0 mm 5 m/S 745 mmHg 62%
17:00 +16°C° 0 mm 5 m/S 744 mmHg 64%
18:00 +15°C° 0 mm 5 m/S 745 mmHg 64%
19:00 +14°C° 0 mm 5 m/S 745 mmHg 63%
20:00 +14°C° 0 mm 4 m/S 745 mmHg 63%
21:00 +14°C° 0 mm 4 m/S 745 mmHg 62%
22:00 +14°C° 0 mm 4 m/S 745 mmHg 60%
23:00 +14°C° 0 mm 4 m/S 745 mmHg 59%

1 Oktober, Donnerstag

Zeit Temperatur Niederschläge Wind Luftdruck Luftfeuchtigkeit
00:00 +13°C° 0 mm 4 m/S 744 mmHg 60%
01:00 +13°C° 0 mm 4 m/S 744 mmHg 60%
02:00 +13°C° 0 mm 4 m/S 744 mmHg 60%
03:00 +12°C° 0 mm 4 m/S 744 mmHg 60%
04:00 +12°C° 0 mm 4 m/S 744 mmHg 59%
05:00 +10°C° 0 mm 5 m/S 744 mmHg 59%
06:00 +12°C° 0 mm 5 m/S 744 mmHg 58%
07:00 +12°C° 0 mm 5 m/S 744 mmHg 57%
08:00 +12°C° 0 mm 5 m/S 744 mmHg 56%
09:00 +13°C° 0 mm 5 m/S 744 mmHg 58%
10:00 +14°C° 0 mm 6 m/S 744 mmHg 60%
11:00 +14°C° 0 mm 6 m/S 744 mmHg 61%
12:00 +14°C° 0 mm 6 m/S 744 mmHg 61%
13:00 +14°C° 0 mm 6 m/S 743 mmHg 60%
14:00 +14°C° 0 mm 5 m/S 743 mmHg 60%
15:00 +13°C° 0 mm 5 m/S 743 mmHg 62%
16:00 +13°C° 0 mm 5 m/S 743 mmHg 64%
17:00 +12°C° 0 mm 5 m/S 743 mmHg 67%
18:00 +12°C° 0 mm 5 m/S 743 mmHg 71%
19:00 +12°C° 0 mm 5 m/S 743 mmHg 76%
20:00 +10°C° 0 mm 5 m/S 743 mmHg 80%
21:00 +12°C° 0 mm 5 m/S 743 mmHg 81%
22:00 +12°C° 0 mm 5 m/S 743 mmHg 83%
23:00 +12°C° 0 mm 5 m/S 743 mmHg 84%

2 Oktober, Freitag

Zeit Temperatur Niederschläge Wind Luftdruck Luftfeuchtigkeit
00:00 +12°C° 0 mm 5 m/S 743 mmHg 84%
01:00 +13°C° 0 mm 5 m/S 743 mmHg 84%
02:00 +13°C° 0 mm 5 m/S 743 mmHg 85%
03:00 +13°C° 0 mm 5 m/S 743 mmHg 84%
04:00 +13°C° 0 mm 5 m/S 743 mmHg 83%
05:00 +13°C° 0 mm 6 m/S 743 mmHg 83%
06:00 +13°C° 0 mm 6 m/S 743 mmHg 83%
07:00 +12°C° 0 mm 7 m/S 743 mmHg 83%
08:00 +12°C° 0 mm 7 m/S 743 mmHg 83%
09:00 +12°C° 0.1 mm 7 m/S 743 mmHg 82%
10:00 +14°C° 0.1 mm 7 m/S 743 mmHg 82%
11:00 +14°C° 0.1 mm 7 m/S 744 mmHg 82%
12:00 +14°C° 0.1 mm 7 m/S 744 mmHg 79%
13:00 +15°C° 0.1 mm 6 m/S 744 mmHg 77%
14:00 +15°C° 0.1 mm 6 m/S 744 mmHg 75%
15:00 +15°C° 0.2 mm 6 m/S 744 mmHg 75%
16:00 +15°C° 0.2 mm 6 m/S 744 mmHg 76%
17:00 +15°C° 0.2 mm 6 m/S 744 mmHg 76%
18:00 +14°C° 0.1 mm 6 m/S 744 mmHg 79%
19:00 +14°C° 0.1 mm 6 m/S 745 mmHg 82%
20:00 +13°C° 0.1 mm 6 m/S 745 mmHg 86%
21:00 +13°C° 0 mm 6 m/S 745 mmHg 87%
22:00 +12°C° 0 mm 5 m/S 745 mmHg 88%
23:00 +12°C° 0 mm 5 m/S 745 mmHg 89%
Mehr zeigen